This is the latest recevied weather packets stored in our database for station/object JF2ZGN-13. If no packets are shown the sender has not sent any weather packets the latest 10 day(s).
| Time | Temp. | Humidity | Pressure | Rain* | Wind** | Luminosity | Snow |
|---|---|---|---|---|---|---|---|
| 1777994833 | 7.78° C | 78% | 913.5 hPa | 0 mm | - | - | - |
| 1777994232 | 7.78° C | 77% | 913.5 hPa | 0 mm | - | - | - |
| 1777993631 | 7.78° C | 77% | 913.8 hPa | 0 mm | - | - | - |
| 1777993031 | 7.78° C | 77% | 913.8 hPa | 0 mm | - | - | - |
| 1777992431 | 7.78° C | 79% | 913.9 hPa | 0 mm | - | - | - |
| 1777991830 | 7.78° C | 79% | 913.9 hPa | 0 mm | - | - | - |
| 1777991230 | 7.78° C | 80% | 914 hPa | 0 mm | - | - | - |
| 1777990629 | 7.78° C | 80% | 914 hPa | 0 mm | - | - | - |
| 1777990029 | 7.78° C | 79% | 913.9 hPa | 0 mm | - | - | - |
| 1777989428 | 7.78° C | 77% | 913.9 hPa | 0 mm | - | - | - |
| 1777988828 | 7.78° C | 77% | 913.9 hPa | 0 mm | - | - | - |
| 1777988228 | 7.78° C | 76% | 914 hPa | 0 mm | - | - | - |
| 1777987627 | 7.78° C | 76% | 914.1 hPa | 0 mm | - | - | - |
| 1777987028 | 7.78° C | 75% | 914.1 hPa | 0 mm | - | - | - |
| 1777986426 | 7.78° C | 75% | 914.2 hPa | 0 mm | - | - | - |
| 1777985225 | 7.78° C | 73% | 914 hPa | 0 mm | - | - | - |
| 1777984624 | 7.78° C | 72% | 913.9 hPa | 0 mm | - | - | - |
| 1777984024 | 7.78° C | 68% | 914.1 hPa | 0 mm | - | - | - |
| 1777983424 | 7.78° C | 62% | 914.1 hPa | 0 mm | - | - | - |
| 1777982823 | 7.22° C | 57% | 914 hPa | 0 mm | - | - | - |
| 1777982223 | 7.78° C | 52% | 914 hPa | 0 mm | - | - | - |
| 1777981022 | 7.22° C | 57% | 913.8 hPa | 0 mm | - | - | - |
| 1777980421 | 7.22° C | 58% | 914 hPa | 0 mm | - | - | - |
| 1777979821 | 7.78° C | 46% | 914 hPa | 0 mm | - | - | - |
| 1777979221 | 7.78° C | 33% | 913.6 hPa | 0 mm | - | - | - |
* Rain since midnight (hover to see other rain measurements)
** Current wind speed in m/s (hover to see current wind gust speed)